This is the latest recevied weather packets stored in our database for station/object W0WC. If no packets are shown the sender has not sent any weather packets the latest 1 day(s).
| Time | Temp. | Humidity | Pressure | Rain* | Wind** | Luminosity | Snow |
|---|---|---|---|---|---|---|---|
| 1778029761 | 8.33° C | 89% | 1012 hPa | 0 mm | 1.34 m/s, 33° | 1 W/m² | - |
| 1778029460 | 8.33° C | 89% | 1011.7 hPa | 0 mm | 1.79 m/s, 36° | 1 W/m² | - |
| 1778029155 | 8.33° C | 89% | 1011.6 hPa | 0 mm | 1.79 m/s, 24° | 2 W/m² | - |
| 1778028854 | 8.33° C | 88% | 1011.9 hPa | 0 mm | 1.34 m/s, 354° | 2 W/m² | - |
| 1778028548 | 8.33° C | 88% | 1011.6 hPa | 0 mm | 1.79 m/s, 28° | 3 W/m² | - |
| 1778028247 | 8.33° C | 88% | 1011.6 hPa | 0 mm | 2.24 m/s, 10° | 3 W/m² | - |
| 1778027942 | 8.33° C | 88% | 1011.7 hPa | 0 mm | 2.68 m/s, 30° | 5 W/m² | - |
| 1778027639 | 8.33° C | 88% | 1011.5 hPa | 0 mm | 1.79 m/s, 20° | 7 W/m² | - |
| 1778027335 | 8.33° C | 88% | 1011.5 hPa | 0 mm | 1.34 m/s, 63° | 7 W/m² | - |
| 1778027031 | 8.33° C | 87% | 1011.4 hPa | 0 mm | 1.79 m/s, 340° | 8 W/m² | - |
| 1778026727 | 8.33° C | 87% | 1011.4 hPa | 0 mm | 2.24 m/s, 343° | 9 W/m² | - |
| 1778026424 | 8.33° C | 88% | 1011.5 hPa | 0 mm | 1.79 m/s, 1° | 13 W/m² | - |
| 1778026133 | 8.33° C | 88% | 1011.3 hPa | 0 mm | 1.34 m/s, 29° | 15 W/m² | - |
| 1778025819 | 8.33° C | 88% | 1011.4 hPa | 0 mm | 1.79 m/s, 33° | 16 W/m² | - |
| 1778025516 | 8.33° C | 87% | 1011.1 hPa | 0 mm | 2.68 m/s, 35° | 22 W/m² | - |
| 1778025213 | 8.33° C | 88% | 1011.3 hPa | 0 mm | 3.13 m/s, 34° | 24 W/m² | - |
| 1778024910 | 8.33° C | 88% | 1011.5 hPa | 0 mm | 1.34 m/s, 21° | 19 W/m² | - |
| 1778024608 | 8.33° C | 87% | 1011.4 hPa | 0 mm | 2.68 m/s, 47° | 19 W/m² | - |
| 1778024316 | 8.33° C | 86% | 1011.1 hPa | 0 mm | 3.13 m/s, 49° | 20 W/m² | - |
| 1778024002 | 8.89° C | 85% | 1011 hPa | 0 mm | 2.68 m/s, 10° | 19 W/m² | - |
| 1778023700 | 8.89° C | 83% | 1010.7 hPa | 0 mm | 3.13 m/s, 12° | 25 W/m² | - |
| 1778023397 | 8.89° C | 81% | 1010.9 hPa | 0 mm | 1.79 m/s, 33° | 20 W/m² | - |
| 1778023094 | 9.44° C | 80% | 1010.9 hPa | 0 mm | 2.24 m/s, 352° | 16 W/m² | - |
| 1778022792 | 9.44° C | 79% | 1010.6 hPa | 0 mm | 3.13 m/s, 16° | 13 W/m² | - |
| 1778022490 | 9.44° C | 78% | 1010.7 hPa | 0 mm | 0.89 m/s, 27° | 18 W/m² | - |
* Rain latest hour (hover to see other rain measurements)
** Current wind speed in m/s (hover to see current wind gust speed)